GW7221 Weather Reports


Display with metric or nautical units.
time (UTC)temp
F
wind
direction
speed
MPH
gust
MPH
rain 1hr
in
rain 24hr
in
rain mn
in
humidity
%
barometer
mb
20260508204845 55 87 0.0 0.0 0.00 0.00 0.05 94 1030.1
20260508204346 55 88 0.0 1.0 0.00 0.00 0.05 94 1030.1
20260508203846 54 88 1.0 2.0 0.00 0.00 0.05 95 1030.1
20260508203345 54 93 0.0 0.0 0.00 0.00 0.05 94 1030.5
20260508202845 54 93 0.0 0.0 0.00 0.00 0.05 94 1030.1
20260508202345 54 93 0.0 0.0 0.00 0.00 0.05 94 1030.5
20260508201846 55 93 0.0 0.0 0.00 0.00 0.05 94 1030.1
20260508201346 55 93 0.0 0.0 0.00 0.00 0.05 94 1030.1
20260508200846 55 93 0.0 0.0 0.00 0.00 0.05 94 1030.1
20260508200345 56 94 0.0 0.0 0.00 0.00 0.05 94 1030.1
20260508195846 56 93 0.0 0.0 0.00 0.00 0.05 94 1029.8
20260508195346 55 94 0.0 2.0 0.01 0.00 0.05 94 1030.1
20260508194846 55 83 0.0 0.0 0.01 0.00 0.05 94 1030.1
20260508194345 55 83 0.0 1.0 0.02 0.00 0.05 94 1030.1
20260508193846 55 75 0.0 0.0 0.02 0.00 0.05 94 1029.8
20260508193345 55 75 0.0 0.0 0.02 0.00 0.05 94 1030.5
20260508192846 55 75 0.0 0.0 0.03 0.00 0.05 94 1029.8
20260508192345 55 75 0.0 0.0 0.04 0.00 0.05 94 1030.1
20260508191845 56 75 0.0 0.0 0.05 0.00 0.05 94 1029.8
20260508191347 56 75 0.0 1.0 0.05 0.00 0.05 93 1029.8
20260508190845 56 76 1.0 2.0 0.05 0.00 0.05 94 1029.8
20260508190345 56 87 1.0 2.0 0.05 0.00 0.05 93 1029.8
20260508185845 56 82 1.0 1.0 0.04 0.00 0.05 93 1029.8
20260508185346 57 79 1.0 2.0 0.04 0.00 0.05 93 1029.8
20260508184846 57 111 3.0 3.0 0.03 0.00 0.04 93 1029.8
20260508184345 57 92 1.0 3.0 0.03 0.00 0.04 93 1030.1
20260508183845 57 101 3.0 5.0 0.03 0.00 0.03 93 1030.1
20260508183348 57 105 4.0 5.0 0.02 0.00 0.03 93 1029.8
20260508182847 57 129 3.0 6.0 0.02 0.00 0.03 92 1030.1
20260508182346 57 121 2.0 2.0 0.01 0.00 0.02 92 1029.8
20260508181846 57 102 2.0 5.0 0.00 0.00 0.01 92 1029.8
20260508181346 58 121 4.0 6.0 0.00 0.00 0.00 91 1029.8
20260508180845 58 145 4.0 7.0 0.00 0.00 0.00 91 1029.8
20260508180346 57 140 6.0 8.0 0.00 0.00 0.00 91 1029.8
20260508175846 57 165 2.0 3.0 0.00 0.00 0.00 90 1029.8
20260508175347 57 132 1.0 1.0 0.00 0.00 0.00 90 1029.8
20260508174847 57 147 2.0 3.0 0.00 0.00 0.00 91 1029.8
20260508174346 57 119 1.0 2.0 0.00 0.00 0.00 91 1029.8
20260508173845 57 104 1.0 3.0 0.00 0.00 0.00 90 1029.8
20260508173346 57 97 2.0 5.0 0.00 0.00 0.00 91 1029.8
20260508172845 57 119 4.0 6.0 0.00 0.00 0.00 91 1030.1
20260508172346 56 97 4.0 5.0 0.00 0.00 0.00 92 1029.8
20260508171845 56 85 1.0 1.0 0.00 0.00 0.00 90 1029.8
20260508171346 57 86 1.0 2.0 0.00 0.00 0.00 90 1030.1
20260508170846 57 104 2.0 2.0 0.00 0.00 0.00 90 1030.1
20260508170346 57 97 2.0 3.0 0.00 0.00 0.00 90 1030.1
20260508165846 57 97 2.0 3.0 0.00 0.00 0.00 90 1030.1
20260508165345 57 110 2.0 3.0 0.00 0.00 0.00 90 1030.1
20260508164846 57 97 2.0 2.0 0.00 0.00 0.00 90 1030.1
20260508164351 57 129 1.0 2.0 0.00 0.00 0.00 90 1030.1
20260508163846 57 148 0.0 1.0 0.00 0.00 0.00 90 1030.1
20260508163346 58 148 1.0 1.0 0.00 0.00 0.00 90 1030.1
20260508162846 58 145 1.0 2.0 0.00 0.00 0.00 90 1030.1
20260508162346 58 139 2.0 3.0 0.00 0.00 0.00 90 1030.1
20260508161846 58 132 1.0 3.0 0.00 0.00 0.00 89 1030.5
20260508161345 58 131 2.0 3.0 0.00 0.00 0.00 89 1030.5
20260508160847 59 108 2.0 6.0 0.00 0.00 0.00 87 1030.1
20260508160346 59 150 8.0 10.0 0.00 0.00 0.00 85 1030.5
20260508155846 59 155 5.0 8.0 0.00 0.00 0.00 84 1030.5
20260508155345 59 146 6.0 7.0 0.00 0.00 0.00 85 1030.1
20260508154846 59 155 3.0 5.0 0.00 0.00 0.00 84 1030.5
20260508154345 59 131 4.0 5.0 0.00 0.00 0.00 84 1030.5
20260508153845 59 126 6.0 8.0 0.00 0.00 0.00 83 1030.5
20260508153345 59 156 6.0 13.0 0.00 0.00 0.00 83 1030.5
20260508152846 59 176 8.0 10.0 0.00 0.00 0.00 85 1030.5
20260508152346 59 156 3.0 6.0 0.00 0.00 0.00 86 1030.1
20260508151845 59 132 5.0 7.0 0.00 0.00 0.00 86 1030.5
20260508151346 59 117 3.0 6.0 0.00 0.00 0.00 86 1030.5
20260508150846 59 108 4.0 6.0 0.00 0.00 0.00 85 1030.5
20260508150351 59 149 3.0 5.0 0.00 0.00 0.00 83 1030.5
20260508145846 59 161 3.0 7.0 0.00 0.00 0.00 83 1030.5
20260508145346 59 170 3.0 3.0 0.00 0.00 0.00 83 1030.5
20260508144845 59 152 4.0 6.0 0.00 0.00 0.00 84 1030.5
20260508144345 59 156 4.0 6.0 0.00 0.00 0.00 84 1030.5
20260508143846 59 157 2.0 6.0 0.00 0.00 0.00 84 1030.5
20260508143346 59 149 5.0 7.0 0.00 0.00 0.00 84 1030.5
20260508142845 59 158 6.0 9.0 0.00 0.00 0.00 85 1030.5
20260508142345 59 161 5.0 5.0 0.00 0.00 0.00 86 1030.5
20260508141846 59 147 4.0 7.0 0.00 0.00 0.00 86 1030.5
20260508141346 59 152 5.0 6.0 0.00 0.00 0.00 86 1030.5
20260508140846 59 160 3.0 5.0 0.00 0.00 0.00 87 1030.8
20260508140347 58 150 4.0 5.0 0.00 0.00 0.00 87 1030.8
20260508135845 58 163 4.0 5.0 0.00 0.00 0.00 88 1030.8
20260508135348 58 149 2.0 3.0 0.00 0.00 0.00 89 1030.8
20260508134846 58 163 2.0 5.0 0.00 0.00 0.00 89 1031.2
20260508133903 58 145 3.0 5.0 0.00 0.00 0.00 90 1031.2
20260508133345 58 151 3.0 3.0 0.00 0.00 0.00 90 1031.2
20260508132847 57 151 2.0 5.0 0.00 0.00 0.00 91 1031.2
20260508132346 57 167 1.0 3.0 0.00 0.00 0.00 91 1031.2
20260508131847 56 184 2.0 2.0 0.00 0.00 0.00 91 1031.2
20260508131345 57 187 2.0 2.0 0.00 0.00 0.00 90 1031.2
20260508130846 57 172 2.0 2.0 0.00 0.00 0.00 91 1031.2
20260508130346 57 174 2.0 2.0 0.00 0.00 0.00 90 1031.2
20260508125845 57 179 2.0 3.0 0.00 0.00 0.00 90 1031.2
20260508125346 57 170 3.0 5.0 0.00 0.00 0.00 90 1031.2
20260508124845 57 157 4.0 6.0 0.00 0.00 0.00 91 1031.2
20260508124345 57 132 5.0 7.0 0.00 0.00 0.00 91 1031.2
20260508123845 57 144 5.0 9.0 0.00 0.00 0.00 91 1031.2
20260508123345 58 135 6.0 9.0 0.00 0.00 0.00 91 1031.2
20260508122846 58 159 2.0 3.0 0.00 0.00 0.00 91 1031.2
20260508122345 57 152 2.0 5.0 0.00 0.00 0.00 91 1031.2
20260508121845 58 152 4.0 6.0 0.00 0.00 0.00 91 1031.2
20260508121346 57 130 4.0 7.0 0.00 0.00 0.00 90 1031.2
20260508120846 58 130 5.0 7.0 0.00 0.00 0.00 90 1031.2
20260508120346 58 138 4.0 7.0 0.00 0.00 0.00 89 1031.5
20260508115845 58 93 7.0 8.0 0.00 0.00 0.00 89 1031.5
20260508115346 58 119 4.0 6.0 0.00 0.00 0.00 88 1031.5
20260508114846 58 140 5.0 6.0 0.00 0.00 0.00 88 1031.5
20260508114346 58 91 4.0 6.0 0.00 0.00 0.00 88 1031.5
20260508113846 58 122 3.0 5.0 0.00 0.00 0.00 88 1031.5
20260508113345 59 123 3.0 5.0 0.00 0.00 0.00 87 1031.2
20260508112846 58 144 5.0 8.0 0.00 0.00 0.00 87 1031.5
20260508112345 58 144 4.0 6.0 0.00 0.00 0.00 87 1031.5
20260508111845 58 170 3.0 6.0 0.00 0.00 0.00 88 1031.5
20260508111345 57 155 3.0 6.0 0.00 0.00 0.00 89 1031.5
20260508110845 57 165 6.0 7.0 0.00 0.00 0.00 90 1031.5
20260508110345 56 198 2.0 2.0 0.00 0.00 0.00 90 1031.5
20260508105846 56 222 1.0 1.0 0.00 0.00 0.00 89 1031.5
20260508105345 57 191 1.0 2.0 0.00 0.00 0.00 89 1031.5
20260508104845 57 204 1.0 3.0 0.00 0.00 0.00 88 1031.5
20260508104347 57 184 2.0 3.0 0.00 0.00 0.00 88 1031.5
20260508103846 57 188 4.0 6.0 0.00 0.00 0.00 88 1031.5
20260508103345 58 169 4.0 7.0 0.00 0.00 0.00 87 1031.5
20260508102846 58 211 5.0 8.0 0.00 0.00 0.00 87 1031.5
20260508102345 58 157 6.0 7.0 0.00 0.00 0.00 86 1031.5
20260508101846 57 181 5.0 7.0 0.00 0.00 0.00 86 1031.5
20260508101345 58 171 3.0 7.0 0.00 0.00 0.00 87 1031.5
20260508100846 57 150 5.0 8.0 0.00 0.00 0.00 86 1031.5
20260508100346 58 124 5.0 8.0 0.00 0.00 0.00 86 1031.5
20260508095848 58 155 9.0 11.0 0.00 0.00 0.00 87 1031.8
20260508095345 59 129 7.0 13.0 0.00 0.00 0.00 86 1031.5
20260508094847 60 158 12.0 15.0 0.00 0.00 0.00 83 1031.5
20260508094346 59 165 5.0 9.0 0.00 0.00 0.00 79 1031.5
20260508093845 60 183 8.0 10.0 0.00 0.00 0.00 79 1031.8
20260508093345 60 160 8.0 10.0 0.00 0.00 0.00 77 1031.5
20260508092845 60 175 7.0 9.0 0.00 0.00 0.00 76 1031.5
20260508092346 60 169 6.0 7.0 0.00 0.00 0.00 76 1031.5
20260508091845 60 139 5.0 9.0 0.00 0.00 0.00 76 1031.5
20260508091345 60 146 7.0 8.0 0.00 0.00 0.00 76 1031.5
20260508090846 60 162 5.0 7.0 0.00 0.00 0.00 79 1031.2
20260508090346 60 147 6.0 7.0 0.00 0.00 0.00 79 1031.5
20260508085846 60 159 5.0 11.0 0.00 0.00 0.00 80 1031.2
20260508085346 60 172 7.0 13.0 0.00 0.00 0.00 79 1031.2
20260508084845 61 157 5.0 10.0 0.00 0.00 0.00 78 1031.2
20260508084345 61 158 7.0 9.0 0.00 0.00 0.00 74 1031.2
20260508083846 61 169 7.0 8.0 0.00 0.00 0.00 73 1031.2
20260508083345 61 164 5.0 10.0 0.00 0.00 0.00 72 1031.2
20260508082847 61 153 4.0 8.0 0.00 0.00 0.00 71 1030.8
20260508082346 61 184 5.0 7.0 0.00 0.00 0.00 72 1030.8
20260508081845 61 146 6.0 8.0 0.00 0.00 0.00 71 1031.2
20260508081345 61 154 5.0 8.0 0.00 0.00 0.00 71 1031.2
20260508080846 61 165 5.0 8.0 0.00 0.00 0.00 72 1031.2
20260508080345 61 167 4.0 9.0 0.00 0.00 0.00 72 1031.2
20260508075845 61 150 5.0 8.0 0.00 0.00 0.00 73 1030.8
20260508075347 61 177 6.0 7.0 0.00 0.00 0.00 73 1031.2
20260508074846 61 149 4.0 6.0 0.00 0.00 0.00 73 1031.2
20260508074346 61 222 6.0 7.0 0.00 0.00 0.00 74 1031.2
20260508073847 61 156 5.0 8.0 0.00 0.00 0.00 73 1031.2
20260508073346 61 157 6.0 7.0 0.00 0.00 0.00 73 1031.2
20260508072846 61 163 7.0 8.0 0.00 0.00 0.00 73 1031.2
20260508072346 61 183 6.0 8.0 0.00 0.00 0.00 73 1031.2
20260508071845 61 184 5.0 9.0 0.00 0.00 0.00 71 1031.5
20260508071346 61 187 6.0 8.0 0.00 0.00 0.00 71 1031.2
20260508070846 61 155 9.0 11.0 0.00 0.00 0.00 72 1031.2
20260508070346 61 170 7.0 11.0 0.00 0.00 0.00 74 1031.2
20260508065846 61 202 7.0 10.0 0.00 0.00 0.00 74 1031.2
20260508065346 61 145 9.0 10.0 0.00 0.00 0.00 73 1031.2
20260508064845 61 157 9.0 10.0 0.00 0.00 0.00 73 1031.5
20260508064347 61 183 8.0 13.0 0.00 0.00 0.00 72 1031.2
20260508063845 61 179 6.0 8.0 0.00 0.00 0.00 73 1031.2
20260508063346 61 143 7.0 9.0 0.00 0.00 0.00 73 1031.2
20260508062846 61 173 6.0 8.0 0.00 0.00 0.00 73 1031.2
20260508062345 61 166 5.0 8.0 0.00 0.00 0.00 71 1031.2
20260508061846 62 169 6.0 8.0 0.00 0.00 0.00 72 1031.2
20260508061346 62 156 3.0 7.0 0.00 0.00 0.00 71 1031.2
20260508060845 62 154 3.0 6.0 0.00 0.00 0.00 70 1031.2
20260508060346 62 179 5.0 6.0 0.00 0.00 0.00 70 1031.2
20260508055847 62 167 3.0 5.0 0.00 0.00 0.00 72 1031.5
20260508055345 62 158 5.0 6.0 0.00 0.00 0.00 72 1031.2
20260508054845 61 151 5.0 6.0 0.00 0.00 0.00 72 1031.5
20260508054346 61 177 6.0 7.0 0.00 0.00 0.00 73 1031.2
20260508053846 61 175 5.0 6.0 0.00 0.00 0.00 74 1031.5
20260508053345 62 139 5.0 10.0 0.00 0.00 0.00 71 1031.2
20260508052845 62 199 4.0 10.0 0.00 0.00 0.00 69 1031.2
20260508052346 62 172 9.0 10.0 0.00 0.00 0.00 68 1031.2
20260508051845 62 196 5.0 10.0 0.00 0.00 0.00 69 1031.2
20260508051345 63 155 6.0 10.0 0.00 0.00 0.00 64 1031.2
20260508050846 63 162 5.0 9.0 0.00 0.00 0.00 64 1031.5
20260508050346 63 151 5.0 6.0 0.00 0.00 0.00 65 1031.2
20260508045845 63 161 5.0 9.0 0.00 0.00 0.00 65 1031.2
20260508045345 63 139 6.0 9.0 0.00 0.00 0.00 63 1031.2
20260508044846 63 136 7.0 9.0 0.00 0.00 0.00 63 1031.5
20260508044345 63 147 6.0 9.0 0.00 0.00 0.00 64 1031.2
20260508043846 63 154 5.0 7.0 0.00 0.00 0.00 67 1031.5
20260508043345 63 151 5.0 8.0 0.00 0.00 0.00 65 1031.5
20260508042846 63 116 5.0 8.0 0.00 0.00 0.00 68 1031.5
20260508042346 62 144 6.0 7.0 0.00 0.00 0.00 66 1031.5
20260508041845 62 157 6.0 9.0 0.00 0.00 0.00 68 1031.5
20260508041345 62 148 7.0 9.0 0.00 0.00 0.00 69 1031.8
20260508040846 61 156 5.0 8.0 0.00 0.00 0.00 69 1031.5
20260508040346 61 139 8.0 9.0 0.00 0.00 0.00 71 1031.8
20260508035845 62 175 5.0 7.0 0.00 0.00 0.00 70 1031.8
20260508035345 62 152 4.0 6.0 0.00 0.00 0.00 70 1031.8
20260508034846 62 199 4.0 6.0 0.00 0.00 0.00 69 1031.8
20260508034346 62 211 5.0 6.0 0.00 0.00 0.00 69 1031.8
20260508033846 62 193 5.0 9.0 0.00 0.00 0.00 69 1031.8
20260508033345 62 200 6.0 8.0 0.00 0.00 0.00 69 1032.2
20260508032845 62 165 7.0 10.0 0.00 0.00 0.00 68 1032.2
20260508032345 62 155 5.0 7.0 0.00 0.00 0.00 67 1032.2
20260508031846 62 176 6.0 7.0 0.00 0.00 0.00 67 1032.2
20260508031346 63 156 6.0 10.0 0.00 0.00 0.00 66 1032.2
20260508030845 63 199 7.0 9.0 0.00 0.00 0.00 65 1032.5
20260508030345 63 176 4.0 6.0 0.00 0.00 0.00 64 1032.2
20260508025845 63 183 4.0 7.0 0.00 0.00 0.00 64 1032.5
20260508025345 63 185 6.0 7.0 0.00 0.00 0.00 64 1032.5
20260508024847 63 142 3.0 6.0 0.00 0.00 0.00 66 1032.5
20260508024346 63 146 2.0 5.0 0.00 0.00 0.00 66 1032.5
20260508023850 63 140 5.0 6.0 0.00 0.00 0.00 64 1032.5
20260508023346 63 132 2.0 3.0 0.00 0.00 0.00 66 1032.5
20260508022845 62 164 3.0 3.0 0.00 0.00 0.00 67 1032.8
20260508022346 62 161 3.0 3.0 0.00 0.00 0.00 67 1032.8
20260508021846 62 157 2.0 6.0 0.00 0.00 0.00 69 1032.8
20260508021345 62 170 3.0 6.0 0.00 0.00 0.00 69 1032.8
20260508020845 62 165 3.0 5.0 0.00 0.00 0.00 68 1033.2
20260508020345 62 165 2.0 2.0 0.00 0.00 0.00 69 1032.8
20260508015846 62 154 2.0 3.0 0.00 0.00 0.00 69 1033.2
20260508015345 62 148 1.0 2.0 0.00 0.00 0.00 70 1033.2
20260508014846 62 111 1.0 2.0 0.00 0.00 0.00 70 1033.2
20260508014346 62 107 0.0 1.0 0.00 0.00 0.00 69 1033.2
20260508013846 62 101 1.0 1.0 0.00 0.00 0.00 71 1033.2
20260508013347 62 127 1.0 2.0 0.00 0.00 0.00 70 1033.2
20260508012846 62 132 3.0 2.0 0.00 0.00 0.00 69 1033.2
20260508012345 62 243 0.0 1.0 0.00 0.00 0.00 71 1033.2
20260508011845 61 268 1.0 2.0 0.00 0.00 0.00 70 1033.2
20260508011345 61 331 1.0 1.0 0.00 0.00 0.00 73 1033.5
20260508010846 61 331 0.0 2.0 0.00 0.00 0.00 74 1033.2
20260508010346 60 1 1.0 1.0 0.00 0.00 0.00 73 1033.5
20260508005845 60 359 1.0 1.0 0.00 0.00 0.00 73 1033.2
20260508005345 60 19 0.0 0.0 0.00 0.00 0.00 75 1033.5
20260508004846 60 19 0.0 1.0 0.00 0.00 0.00 74 1033.2
20260508004345 60 20 1.0 1.0 0.00 0.00 0.00 75 1033.2
20260508003845 60 2 1.0 1.0 0.00 0.00 0.00 76 1033.2
20260508003345 60 50 1.0 1.0 0.00 0.00 0.00 75 1033.2
20260508002845 60 88 1.0 2.0 0.00 0.00 0.00 75 1033.2
20260508002347 60 95 1.0 2.0 0.00 0.00 0.00 75 1033.2
20260508001845 60 93 0.0 1.0 0.00 0.00 0.00 75 1033.2
20260508000857 59 72 2.0 2.0 0.00 0.00 0.00 77 1033.2
20260508000345 59 72 0.0 1.0 0.00 0.00 0.00 78 1033.2
20260507235846 58 73 2.0 2.0 0.00 0.00 0.00 78 1033.2
20260507235345 58 68 1.0 2.0 0.00 0.00 0.00 78 1033.2
20260507234846 58 68 1.0 1.0 0.00 0.00 0.00 78 1033.5
20260507234345 58 66 1.0 1.0 0.00 0.00 0.00 80 1033.2
20260507233846 58 66 1.0 1.0 0.00 0.00 0.00 81 1033.2
20260507233346 57 66 1.0 2.0 0.00 0.00 0.00 81 1033.2
20260507232845 57 66 2.0 2.0 0.00 0.00 0.00 82 1032.8
20260507232345 57 68 0.0 1.0 0.00 0.00 0.00 82 1033.2
20260507231846 57 68 1.0 1.0 0.00 0.00 0.00 83 1033.2
20260507231345 57 73 1.0 2.0 0.00 0.00 0.00 83 1033.2
20260507230845 56 73 2.0 3.0 0.00 0.00 0.00 83 1033.2
20260507230345 56 69 1.0 3.0 0.00 0.00 0.00 83 1032.8
20260507225845 56 60 2.0 2.0 0.00 0.00 0.00 83 1032.8
20260507225346 56 61 1.0 3.0 0.00 0.00 0.00 82 1032.8
20260507224845 56 24 3.0 3.0 0.00 0.00 0.00 83 1032.8
20260507224346 56 357 1.0 1.0 0.00 0.00 0.00 83 1032.8
20260507223847 56 22 1.0 1.0 0.00 0.00 0.00 84 1032.8
20260507223347 56 348 1.0 2.0 0.00 0.00 0.00 84 1032.8
20260507222847 56 15 1.0 1.0 0.00 0.00 0.00 84 1032.5
20260507222345 56 14 1.0 1.0 0.00 0.00 0.00 84 1032.8
20260507221845 56 62 2.0 3.0 0.00 0.00 0.00 83 1032.8
20260507221345 56 75 2.0 3.0 0.00 0.00 0.00 82 1032.8
20260507220845 57 74 3.0 3.0 0.00 0.00 0.00 82 1032.8
20260507220345 57 99 1.0 2.0 0.00 0.00 0.00 83 1032.8
20260507215845 57 106 1.0 1.0 0.00 0.00 0.00 83 1032.5
20260507215345 57 104 1.0 2.0 0.00 0.00 0.00 83 1032.5
20260507214845 57 110 0.0 1.0 0.00 0.00 0.00 82 1032.5
20260507214345 57 123 1.0 3.0 0.00 0.00 0.00 82 1032.8
20260507213846 57 116 2.0 3.0 0.00 0.00 0.00 82 1032.5
20260507213346 57 122 2.0 2.0 0.00 0.00 0.00 82 1032.5
20260507212846 57 116 3.0 5.0 0.00 0.00 0.00 81 1032.2
20260507212345 57 125 1.0 5.0 0.00 0.00 0.00 80 1032.5
20260507211846 57 120 3.0 3.0 0.00 0.00 0.00 79 1032.2
20260507211345 57 116 3.0 3.0 0.00 0.00 0.00 79 1032.2
20260507210846 57 142 4.0 6.0 0.00 0.00 0.00 79 1032.2
20260507210345 57 153 5.0 6.0 0.00 0.00 0.00 80 1032.2
20260507205846 57 157 3.0 5.0 0.00 0.00 0.00 80 1032.2
20260507205345 57 116 4.0 6.0 0.00 0.00 0.00 80 1032.2